Weather History for KDRO - March, 2013

Change the Weather History Date:

Sunday, March 31, 2013

  Actual Average Record
Temperature  
Mean Temperature 49 °F 41 °F  
Max Temperature 68 °F 57 °F 72 °F (1978)
Min Temperature 29 °F 26 °F 14 °F (1972)
Degree Days  
Heating Degree Days 16 24  
Month to date heating degree days 793 855  
Since 1 July heating degree days 6139 6029  
Cooling Degree Days 0 0  
Month to date cooling degree days 0 0  
Year to date cooling degree days 0 0  
Moisture  
Dew Point 21 °F    
Average Humidity 37    
Maximum Humidity 63    
Minimum Humidity 11    
Precipitation  
Precipitation 0.00 in 0.04 in 0.08 in (1980)
Month to date precipitation 0.40 1.25  
Year to date precipitation 2.61 3.53  
Sea Level Pressure  
Sea Level Pressure 30.00 in    
Wind  
Wind Speed 6 mph (WNW)    
Max Wind Speed 22 mph    
Max Gust Speed 29 mph    
Visibility 10 miles    
Events      
T = Trace of Precipitation, MM = Missing Value Source: NWS Daily Summary

Daily Weather History Graph

Daily Weather History Graph

Search for Another Location

Airport or City:

Trip Planner

Search our weather history database for the weather conditions in past years. The results will help you decide how hot, cold, wet, or windy it might be!

Date:

Astronomy

Mar. 31, 2013 Rise Set
Actual Time 6:57 AM MDT 7:32 PM MDT
Civil Twilight 6:31 AM MDT 7:59 PM MDT
Nautical Twilight 6:00 AM MDT 8:30 PM MDT
Astronomical Twilight 5:29 AM MDT 9:01 PM MDT
Moon No Moon Rise 9:54 AM MDT
Length of Visible Light 13h 27m
Length of Day
12h 35m
Waning Gibbous, 77% of the Moon is Illuminated
Mar 31
Waning Gibbous
Apr 2
Last Quarter
Apr 10
New
Apr 18
First Quarter
Apr 25
Full

Hourly Weather History & Observations

Time (MDT) Temp. Windchill Dew Point Humidity Pressure Visibility Wind Dir Wind Speed Gust Speed Precip Events Conditions
12:53 AM 43.0 °F - 23.0 °F 45% 30.00 in 10.0 mi Calm Calm - N/A   Clear
1:53 AM 39.9 °F - 23.0 °F 51% 30.02 in 10.0 mi Calm Calm - N/A   Clear
2:53 AM 36.0 °F - 23.0 °F 59% 30.02 in 10.0 mi Calm Calm - N/A   Clear
3:53 AM 35.1 °F - 21.9 °F 59% 30.02 in 10.0 mi Calm Calm - N/A   Clear
4:53 AM 33.1 °F - 21.9 °F 64% 30.03 in 10.0 mi Calm Calm - N/A   Clear
5:53 AM 32.0 °F - 21.9 °F 66% 30.06 in 10.0 mi Calm Calm - N/A   Clear
6:53 AM 30.0 °F - 19.9 °F 66% 30.08 in 10.0 mi Calm Calm - N/A   Clear
7:53 AM 35.1 °F - 23.0 °F 61% 30.10 in 10.0 mi Calm Calm - N/A   Clear
8:53 AM 43.0 °F - 24.1 °F 47% 30.09 in 10.0 mi Calm Calm - N/A   Clear
9:53 AM 50.0 °F - 21.9 °F 33% 30.06 in 10.0 mi Calm Calm - N/A   Clear
10:53 AM 55.0 °F - 24.1 °F 30% 30.05 in 10.0 mi WSW 4.6 mph - N/A   Clear
11:53 AM 59.0 °F - 21.9 °F 24% 30.01 in 10.0 mi Variable 5.8 mph 18.4 mph N/A   Clear
12:53 PM 64.0 °F - 21.9 °F 20% 29.98 in 10.0 mi WSW 15.0 mph 19.6 mph N/A   Mostly Cloudy
1:53 PM 64.9 °F - 17.1 °F 16% 29.96 in 10.0 mi West 8.1 mph 19.6 mph N/A   Partly Cloudy
2:53 PM 66.0 °F - 10.9 °F 12% 29.95 in 10.0 mi WNW 9.2 mph 28.8 mph N/A   Partly Cloudy
3:53 PM 66.9 °F - 15.1 °F 14% 29.93 in 10.0 mi WSW 13.8 mph 24.2 mph N/A   Partly Cloudy
4:53 PM 68.0 °F - 15.1 °F 13% 29.91 in 10.0 mi West 17.3 mph 25.3 mph N/A   Clear
5:53 PM 64.9 °F - 15.1 °F 15% 29.93 in 10.0 mi West 18.4 mph 25.3 mph N/A   Clear
7:53 PM 57.0 °F - 21.9 °F 26% 29.97 in 10.0 mi NW 9.2 mph - N/A   Clear
8:53 PM 52.0 °F - 21.9 °F 31% 29.96 in 10.0 mi SW 4.6 mph - N/A   Partly Cloudy
9:53 PM 48.9 °F - 21.9 °F 35% 29.96 in 10.0 mi NNW 4.6 mph - N/A   Scattered Clouds
10:53 PM 46.0 °F 41.4 °F 21.9 °F 39% 29.95 in 10.0 mi North 9.2 mph - N/A   Clear
11:53 PM 43.0 °F 41.3 °F 23.0 °F 45% 29.94 in 10.0 mi NE 3.5 mph - N/A   Partly Cloudy